| time (UTC) | temp F | wind direction | speed MPH | gust MPH | rain 1hr in | rain 24hr in | rain mn in | humidity % | barometer mb |
| 20260507194842 | 58 | 334 | 0.0 | 2.0 | 0.00 | 0.00 | 0.00 | 71 | 1010.6 |
| 20260507194605 | 58 | 338 | 0.0 | 0.0 | 0.00 | 0.00 | 0.00 | 74 | 1010.6 |
| 20260507193842 | 58 | 338 | 0.0 | 0.0 | 0.00 | 0.00 | 0.00 | 73 | 1010.6 |
| 20260507193339 | 58 | 338 | 0.0 | 1.0 | 0.00 | 0.00 | 0.00 | 73 | 1010.8 |
| 20260507192836 | 58 | 338 | 1.0 | 2.0 | 0.00 | 0.00 | 0.00 | 73 | 1010.8 |
| 20260507192335 | 58 | 338 | 1.0 | 2.0 | 0.00 | 0.00 | 0.00 | 69 | 1010.9 |
| 20260507191835 | 58 | 338 | 0.0 | 2.0 | 0.00 | 0.00 | 0.00 | 69 | 1010.8 |
| 20260507191336 | 58 | 338 | 1.0 | 3.0 | 0.00 | 0.00 | 0.00 | 72 | 1010.9 |
| 20260507190833 | 58 | 5 | 1.0 | 3.0 | 0.00 | 0.00 | 0.00 | 70 | 1010.9 |
| 20260507190334 | 58 | 334 | 0.0 | 3.0 | 0.00 | 0.00 | 0.00 | 72 | 1010.8 |
| 20260507185832 | 58 | 32 | 0.0 | 2.0 | 0.00 | 0.00 | 0.00 | 72 | 1010.9 |
| 20260507185332 | 58 | 32 | 1.0 | 2.0 | 0.00 | 0.00 | 0.00 | 71 | 1011.0 |
| 20260507185055 | 58 | 32 | 1.0 | 2.0 | 0.00 | 0.00 | 0.00 | 70 | 1010.9 |
| 20260507184328 | 58 | 25 | 1.0 | 2.0 | 0.00 | 0.00 | 0.00 | 71 | 1011.1 |
| 20260507184044 | 58 | 25 | 1.0 | 4.0 | 0.00 | 0.00 | 0.00 | 72 | 1011.0 |
| 20260507183326 | 58 | 24 | 1.0 | 4.0 | 0.00 | 0.00 | 0.00 | 71 | 1011.2 |
| 20260507182825 | 58 | 61 | 1.0 | 3.0 | 0.00 | 0.00 | 0.00 | 73 | 1011.1 |
| 20260507182324 | 58 | 61 | 1.0 | 2.0 | 0.00 | 0.00 | 0.00 | 73 | 1011.2 |
| 20260507181824 | 57 | 61 | 0.0 | 2.0 | 0.00 | 0.00 | 0.00 | 74 | 1011.3 |
| 20260507181324 | 57 | 61 | 0.0 | 2.0 | 0.00 | 0.00 | 0.00 | 74 | 1011.4 |
| 20260507180825 | 57 | 61 | 0.0 | 2.0 | 0.00 | 0.00 | 0.00 | 74 | 1011.4 |
| 20260507180325 | 57 | 61 | 1.0 | 3.0 | 0.00 | 0.00 | 0.00 | 76 | 1011.4 |
| 20260507175824 | 57 | 61 | 1.0 | 3.0 | 0.00 | 0.00 | 0.00 | 77 | 1011.3 |
| 20260507175324 | 57 | 60 | 1.0 | 2.0 | 0.00 | 0.00 | 0.00 | 76 | 1011.6 |
| 20260507174825 | 57 | 60 | 1.0 | 3.0 | 0.00 | 0.00 | 0.00 | 76 | 1011.7 |
| 20260507174324 | 57 | 59 | 1.0 | 3.0 | 0.00 | 0.00 | 0.00 | 75 | 1011.9 |
| 20260507174045 | 57 | 116 | 1.0 | 4.0 | 0.00 | 0.00 | 0.00 | 74 | 1011.9 |
| 20260507173323 | 58 | 53 | 1.0 | 4.0 | 0.00 | 0.00 | 0.00 | 74 | 1012.0 |
| 20260507172824 | 58 | 300 | 1.0 | 4.0 | 0.00 | 0.00 | 0.00 | 73 | 1012.2 |
| 20260507172549 | 58 | 62 | 1.0 | 4.0 | 0.00 | 0.00 | 0.00 | 73 | 1012.3 |
| 20260507171820 | 58 | 64 | 1.0 | 4.0 | 0.00 | 0.00 | 0.00 | 72 | 1012.3 |
| 20260507171317 | 58 | 311 | 1.0 | 3.0 | 0.00 | 0.00 | 0.00 | 71 | 1012.4 |
| 20260507170814 | 58 | 71 | 1.0 | 4.0 | 0.00 | 0.00 | 0.00 | 72 | 1012.1 |
| 20260507170314 | 58 | 71 | 1.0 | 4.0 | 0.00 | 0.00 | 0.00 | 71 | 1012.2 |
| 20260507165814 | 58 | 318 | 1.0 | 3.0 | 0.00 | 0.00 | 0.00 | 71 | 1012.0 |
| 20260507165537 | 58 | 53 | 1.0 | 3.0 | 0.00 | 0.00 | 0.00 | 71 | 1012.3 |
| 20260507164811 | 58 | 60 | 1.0 | 6.0 | 0.00 | 0.00 | 0.00 | 72 | 1012.4 |
| 20260507164308 | 58 | 77 | 1.0 | 6.0 | 0.00 | 0.00 | 0.00 | 72 | 1012.4 |
| 20260507163806 | 58 | 71 | 1.0 | 5.0 | 0.00 | 0.00 | 0.00 | 71 | 1012.4 |
| 20260507163308 | 58 | 76 | 1.0 | 5.0 | 0.00 | 0.00 | 0.00 | 71 | 1012.3 |
| 20260507162806 | 58 | 67 | 1.0 | 5.0 | 0.00 | 0.00 | 0.00 | 71 | 1012.5 |
| 20260507162307 | 58 | 80 | 1.0 | 4.0 | 0.00 | 0.00 | 0.00 | 71 | 1012.6 |
| 20260507161805 | 58 | 74 | 1.0 | 4.0 | 0.00 | 0.00 | 0.00 | 72 | 1012.5 |
| 20260507161258 | 58 | 56 | 2.0 | 5.0 | 0.00 | 0.00 | 0.00 | 71 | 1012.6 |
| 20260507160753 | 58 | 280 | 1.0 | 5.0 | 0.00 | 0.00 | 0.00 | 69 | 1012.3 |
| 20260507160247 | 58 | 88 | 1.0 | 5.0 | 0.00 | 0.00 | 0.00 | 72 | 1012.3 |
| 20260507155741 | 58 | 81 | 1.0 | 7.0 | 0.00 | 0.00 | 0.00 | 70 | 1012.4 |
| 20260507155234 | 58 | 66 | 2.0 | 7.0 | 0.00 | 0.00 | 0.00 | 70 | 1012.3 |
| 20260507155215 | 58 | 78 | 1.0 | 4.0 | 0.00 | 0.00 | 0.00 | 69 | 1012.3 |
| 20260507154448 | 59 | 53 | 1.0 | 5.0 | 0.00 | 0.00 | 0.00 | 69 | 1012.6 |
| 20260507153717 | 59 | 71 | 2.0 | 9.0 | 0.00 | 0.01 | 0.00 | 70 | 1012.4 |
| 20260507153211 | 59 | 79 | 2.0 | 9.0 | 0.00 | 0.01 | 0.00 | 67 | 1012.6 |
| 20260507152705 | 59 | 65 | 1.0 | 4.0 | 0.00 | 0.02 | 0.00 | 70 | 1012.8 |
| 20260507152159 | 59 | 63 | 2.0 | 5.0 | 0.00 | 0.02 | 0.00 | 68 | 1012.6 |
| 20260507151916 | 59 | 55 | 2.0 | 6.0 | 0.00 | 0.02 | 0.00 | 70 | 1012.5 |
| 20260507151629 | 59 | 63 | 2.0 | 8.0 | 0.00 | 0.02 | 0.00 | 69 | 1012.7 |
| 20260507150641 | 59 | 61 | 2.0 | 8.0 | 0.00 | 0.02 | 0.00 | 69 | 1012.8 |
| 20260507150135 | 58 | 87 | 2.0 | 8.0 | 0.00 | 0.02 | 0.00 | 70 | 1012.7 |
| 20260507145629 | 58 | 101 | 2.0 | 8.0 | 0.00 | 0.02 | 0.00 | 70 | 1012.5 |
| 20260507145349 | 58 | 70 | 2.0 | 8.0 | 0.00 | 0.02 | 0.00 | 72 | 1012.8 |
| 20260507144615 | 58 | 79 | 2.0 | 8.0 | 0.00 | 0.02 | 0.00 | 70 | 1013.2 |
| 20260507144111 | 58 | 67 | 1.0 | 3.0 | 0.00 | 0.02 | 0.00 | 72 | 1013.2 |
| 20260507143605 | 58 | 36 | 2.0 | 7.0 | 0.00 | 0.02 | 0.00 | 73 | 1013.1 |
| 20260507143057 | 58 | 74 | 2.0 | 8.0 | 0.00 | 0.02 | 0.00 | 73 | 1012.8 |
| 20260507142553 | 58 | 96 | 2.0 | 11.0 | 0.00 | 0.02 | 0.00 | 72 | 1012.9 |
| 20260507142047 | 58 | 64 | 2.0 | 11.0 | 0.00 | 0.02 | 0.00 | 74 | 1013.0 |
| 20260507141541 | 58 | 46 | 2.0 | 11.0 | 0.00 | 0.02 | 0.00 | 73 | 1013.0 |
| 20260507141033 | 58 | 107 | 1.0 | 6.0 | 0.00 | 0.02 | 0.00 | 76 | 1013.1 |
| 20260507140529 | 57 | 96 | 1.0 | 6.0 | 0.00 | 0.02 | 0.00 | 77 | 1012.9 |
| 20260507140024 | 57 | 120 | 1.0 | 6.0 | 0.00 | 0.02 | 0.00 | 78 | 1012.7 |
| 20260507135517 | 57 | 59 | 1.0 | 6.0 | 0.00 | 0.02 | 0.00 | 79 | 1012.7 |
| 20260507135011 | 57 | 63 | 1.0 | 4.0 | 0.00 | 0.02 | 0.00 | 79 | 1012.6 |
| 20260507134504 | 57 | 287 | 1.0 | 5.0 | 0.00 | 0.02 | 0.00 | 78 | 1012.4 |
| 20260507133959 | 57 | 275 | 1.0 | 5.0 | 0.00 | 0.02 | 0.00 | 79 | 1012.5 |
| 20260507133452 | 57 | 44 | 1.0 | 5.0 | 0.00 | 0.02 | 0.00 | 79 | 1012.4 |
| 20260507132945 | 57 | 78 | 1.0 | 4.0 | 0.00 | 0.02 | 0.00 | 79 | 1012.4 |
| 20260507132658 | 57 | 28 | 1.0 | 8.0 | 0.00 | 0.02 | 0.00 | 80 | 1012.5 |
| 20260507131935 | 57 | 103 | 1.0 | 8.0 | 0.00 | 0.02 | 0.00 | 79 | 1012.6 |
| 20260507131428 | 57 | 90 | 2.0 | 9.0 | 0.00 | 0.02 | 0.00 | 78 | 1012.5 |
| 20260507130923 | 57 | 73 | 2.0 | 9.0 | 0.00 | 0.02 | 0.00 | 79 | 1012.7 |
| 20260507130416 | 57 | 72 | 2.0 | 5.0 | 0.00 | 0.02 | 0.00 | 83 | 1012.9 |
| 20260507125911 | 58 | 43 | 2.0 | 6.0 | 0.00 | 0.02 | 0.00 | 85 | 1012.6 |
| 20260507125406 | 58 | 22 | 2.0 | 8.0 | 0.00 | 0.02 | 0.00 | 85 | 1012.4 |
| 20260507124906 | 58 | 61 | 2.0 | 8.0 | 0.00 | 0.02 | 0.00 | 85 | 1012.2 |
| 20260507124407 | 58 | 96 | 2.0 | 5.0 | 0.00 | 0.02 | 0.00 | 86 | 1012.2 |
| 20260507123904 | 58 | 119 | 2.0 | 5.0 | 0.00 | 0.02 | 0.00 | 87 | 1012.4 |
| 20260507123403 | 58 | 87 | 2.0 | 6.0 | 0.00 | 0.02 | 0.00 | 87 | 1012.4 |
| 20260507123120 | 58 | 61 | 2.0 | 6.0 | 0.00 | 0.02 | 0.00 | 86 | 1012.3 |
| 20260507122403 | 58 | 72 | 2.0 | 5.0 | 0.00 | 0.02 | 0.00 | 86 | 1012.5 |
| 20260507121903 | 58 | 67 | 1.0 | 5.0 | 0.00 | 0.02 | 0.00 | 87 | 1012.5 |
| 20260507121405 | 58 | 182 | 1.0 | 4.0 | 0.00 | 0.02 | 0.00 | 89 | 1012.5 |
| 20260507120903 | 58 | 101 | 1.0 | 3.0 | 0.00 | 0.02 | 0.00 | 89 | 1012.3 |
| 20260507120405 | 58 | 53 | 1.0 | 4.0 | 0.00 | 0.02 | 0.00 | 90 | 1012.3 |
| 20260507115905 | 58 | 85 | 1.0 | 4.0 | 0.00 | 0.02 | 0.00 | 89 | 1012.4 |
| 20260507115623 | 58 | 349 | 0.0 | 2.0 | 0.00 | 0.02 | 0.00 | 89 | 1012.2 |
| 20260507114903 | 58 | 74 | 1.0 | 2.0 | 0.00 | 0.02 | 0.00 | 89 | 1012.3 |
| 20260507114403 | 58 | 74 | 1.0 | 4.0 | 0.00 | 0.02 | 0.00 | 88 | 1012.2 |
| 20260507113904 | 58 | 55 | 1.0 | 4.0 | 0.00 | 0.02 | 0.00 | 88 | 1012.3 |
| 20260507113405 | 59 | 53 | 1.0 | 4.0 | 0.00 | 0.02 | 0.00 | 87 | 1012.3 |
| 20260507113128 | 59 | 94 | 1.0 | 4.0 | 0.00 | 0.02 | 0.00 | 86 | 1012.3 |
| 20260507112404 | 59 | 344 | 1.0 | 3.0 | 0.00 | 0.02 | 0.00 | 85 | 1012.2 |
| 20260507112345 | 60 | 81 | 1.0 | 4.0 | 0.00 | 0.02 | 0.00 | 85 | 1012.2 |
| 20260507111358 | 60 | 81 | 1.0 | 4.0 | 0.00 | 0.02 | 0.00 | 86 | 1012.4 |
| 20260507110852 | 60 | 57 | 1.0 | 3.0 | 0.00 | 0.02 | 0.00 | 87 | 1012.1 |
| 20260507110346 | 60 | 348 | 1.0 | 2.0 | 0.00 | 0.02 | 0.00 | 87 | 1012.0 |
| 20260507105840 | 60 | 348 | 1.0 | 3.0 | 0.00 | 0.02 | 0.00 | 87 | 1011.8 |
| 20260507105334 | 60 | 54 | 1.0 | 4.0 | 0.00 | 0.02 | 0.00 | 87 | 1011.6 |
| 20260507104827 | 60 | 307 | 1.0 | 4.0 | 0.00 | 0.02 | 0.00 | 87 | 1011.5 |
| 20260507104322 | 60 | 19 | 1.0 | 4.0 | 0.00 | 0.02 | 0.00 | 87 | 1011.4 |
| 20260507104041 | 60 | 136 | 1.0 | 3.0 | 0.00 | 0.02 | 0.00 | 87 | 1011.6 |
| 20260507103310 | 60 | 32 | 1.0 | 3.0 | 0.00 | 0.02 | 0.00 | 88 | 1011.4 |
| 20260507103022 | 60 | 281 | 1.0 | 3.0 | 0.00 | 0.02 | 0.00 | 87 | 1011.5 |
| 20260507102258 | 60 | 74 | 1.0 | 3.0 | 0.00 | 0.02 | 0.00 | 87 | 1011.6 |
| 20260507101751 | 60 | 5 | 1.0 | 2.0 | 0.00 | 0.02 | 0.00 | 87 | 1011.6 |
| 20260507101245 | 61 | 5 | 1.0 | 4.0 | 0.00 | 0.02 | 0.00 | 87 | 1011.4 |
| 20260507100740 | 61 | 0 | 0.0 | 4.0 | 0.00 | 0.02 | 0.00 | 87 | 1011.5 |
| 20260507100233 | 61 | 264 | 0.0 | 2.0 | 0.00 | 0.02 | 0.00 | 87 | 1011.5 |
| 20260507095728 | 61 | 29 | 1.0 | 4.0 | 0.00 | 0.02 | 0.00 | 87 | 1011.6 |
| 20260507095223 | 62 | 13 | 1.0 | 4.0 | 0.00 | 0.02 | 0.00 | 86 | 1011.6 |
| 20260507094717 | 62 | 306 | 1.0 | 3.0 | 0.00 | 0.02 | 0.00 | 86 | 1011.5 |
| 20260507094210 | 62 | 38 | 1.0 | 4.0 | 0.00 | 0.02 | 0.00 | 85 | 1011.3 |
| 20260507093703 | 62 | 349 | 1.0 | 4.0 | 0.00 | 0.02 | 0.00 | 85 | 1011.4 |
| 20260507093158 | 62 | 5 | 1.0 | 4.0 | 0.00 | 0.02 | 0.00 | 85 | 1011.4 |
| 20260507092652 | 62 | 334 | 1.0 | 6.0 | 0.00 | 0.02 | 0.00 | 85 | 1011.1 |
| 20260507092145 | 63 | 39 | 1.0 | 6.0 | 0.00 | 0.02 | 0.00 | 84 | 1011.1 |
| 20260507091904 | 63 | 225 | 1.0 | 4.0 | 0.00 | 0.02 | 0.00 | 85 | 1010.9 |
| 20260507091134 | 63 | 226 | 1.0 | 4.0 | 0.00 | 0.02 | 0.00 | 84 | 1010.8 |
| 20260507090628 | 63 | 109 | 1.0 | 4.0 | 0.00 | 0.02 | 0.00 | 85 | 1010.5 |
| 20260507090122 | 64 | 344 | 2.0 | 7.0 | 0.00 | 0.02 | 0.00 | 84 | 1010.7 |
| 20260507085615 | 64 | 84 | 1.0 | 7.0 | 0.00 | 0.02 | 0.00 | 85 | 1010.4 |
| 20260507085110 | 64 | 351 | 1.0 | 4.0 | 0.00 | 0.02 | 0.00 | 85 | 1010.5 |
| 20260507084604 | 65 | 315 | 1.0 | 4.0 | 0.00 | 0.02 | 0.00 | 86 | 1010.6 |
| 20260507084322 | 65 | 273 | 1.0 | 4.0 | 0.00 | 0.02 | 0.00 | 86 | 1010.6 |
| 20260507083552 | 65 | 40 | 1.0 | 4.0 | 0.00 | 0.02 | 0.00 | 86 | 1010.4 |
| 20260507083047 | 66 | 14 | 1.0 | 4.0 | 0.00 | 0.02 | 0.00 | 84 | 1010.4 |
| 20260507082540 | 67 | 13 | 1.0 | 4.0 | 0.00 | 0.02 | 0.00 | 84 | 1010.3 |
| 20260507082034 | 67 | 195 | 1.0 | 8.0 | 0.00 | 0.02 | 0.00 | 84 | 1010.2 |
| 20260507081528 | 68 | 0 | 2.0 | 8.0 | 0.00 | 0.02 | 0.00 | 83 | 1010.2 |
| 20260507081244 | 69 | 196 | 1.0 | 8.0 | 0.00 | 0.02 | 0.00 | 84 | 1010.1 |
| 20260507080516 | 70 | 355 | 0.0 | 8.0 | 0.00 | 0.02 | 0.00 | 84 | 1010.1 |
| 20260507080010 | 70 | 249 | 0.0 | 1.0 | 0.00 | 0.02 | 0.00 | 85 | 1010.2 |
| 20260507075504 | 70 | 249 | 0.0 | 2.0 | 0.00 | 0.02 | 0.00 | 84 | 1010.0 |
| 20260507074958 | 70 | 249 | 0.0 | 1.0 | 0.00 | 0.02 | 0.00 | 84 | 1010.1 |
| 20260507074452 | 70 | 249 | 0.0 | 1.0 | 0.00 | 0.02 | 0.00 | 83 | 1010.2 |
| 20260507073946 | 70 | 249 | 1.0 | 3.0 | 0.00 | 0.02 | 0.00 | 83 | 1010.1 |
| 20260507073440 | 70 | 249 | 1.0 | 3.0 | 0.00 | 0.02 | 0.00 | 83 | 1010.1 |
| 20260507072934 | 71 | 239 | 0.0 | 3.0 | 0.00 | 0.02 | 0.00 | 83 | 1010.0 |
| 20260507072428 | 71 | 239 | 0.0 | 3.0 | 0.00 | 0.02 | 0.00 | 83 | 1010.0 |
| 20260507071922 | 71 | 241 | 0.0 | 1.0 | 0.00 | 0.02 | 0.00 | 83 | 1009.9 |
| 20260507071416 | 71 | 241 | 0.0 | 2.0 | 0.00 | 0.02 | 0.00 | 82 | 1009.7 |
| 20260507070912 | 71 | 241 | 1.0 | 2.0 | 0.00 | 0.02 | 0.00 | 82 | 1009.5 |
| 20260507070413 | 71 | 241 | 1.0 | 2.0 | 0.00 | 0.02 | 0.00 | 82 | 1009.3 |
| 20260507065910 | 71 | 241 | 1.0 | 3.0 | 0.00 | 0.02 | 0.00 | 81 | 1009.2 |
| 20260507065410 | 71 | 260 | 1.0 | 3.0 | 0.00 | 0.02 | 0.00 | 81 | 1009.0 |
| 20260507064909 | 71 | 261 | 1.0 | 2.0 | 0.00 | 0.02 | 0.00 | 81 | 1008.9 |
| 20260507064407 | 71 | 223 | 1.0 | 3.0 | 0.00 | 0.02 | 0.00 | 81 | 1008.9 |
| 20260507063907 | 71 | 231 | 1.0 | 3.0 | 0.00 | 0.02 | 0.00 | 81 | 1008.7 |
| 20260507063407 | 72 | 210 | 1.0 | 4.0 | 0.00 | 0.02 | 0.00 | 80 | 1008.5 |
| 20260507062906 | 72 | 209 | 2.0 | 4.0 | 0.00 | 0.02 | 0.00 | 80 | 1008.7 |
| 20260507062406 | 72 | 211 | 2.0 | 4.0 | 0.00 | 0.02 | 0.00 | 80 | 1009.0 |
| 20260507061908 | 72 | 225 | 2.0 | 4.0 | 0.00 | 0.02 | 0.00 | 79 | 1009.1 |
| 20260507061403 | 72 | 216 | 2.0 | 3.0 | 0.00 | 0.02 | 0.00 | 79 | 1009.0 |
| 20260507060904 | 72 | 216 | 1.0 | 3.0 | 0.00 | 0.02 | 0.00 | 79 | 1009.2 |
| 20260507060403 | 72 | 228 | 1.0 | 3.0 | 0.00 | 0.02 | 0.00 | 79 | 1009.2 |
| 20260507055903 | 72 | 228 | 1.0 | 3.0 | 0.00 | 0.02 | 0.00 | 79 | 1009.3 |
| 20260507055402 | 72 | 231 | 1.0 | 2.0 | 0.00 | 0.02 | 0.00 | 78 | 1009.4 |
| 20260507055129 | 72 | 230 | 1.0 | 3.0 | 0.00 | 0.02 | 0.00 | 78 | 1009.4 |
| 20260507054403 | 72 | 229 | 2.0 | 3.0 | 0.00 | 0.02 | 0.00 | 78 | 1009.6 |
| 20260507053902 | 72 | 210 | 2.0 | 3.0 | 0.00 | 0.02 | 0.00 | 78 | 1009.7 |
| 20260507053616 | 72 | 209 | 2.0 | 4.0 | 0.00 | 0.02 | 0.00 | 78 | 1009.8 |
| 20260507052856 | 72 | 209 | 2.0 | 4.0 | 0.00 | 0.02 | 0.00 | 78 | 1009.9 |
| 20260507052358 | 72 | 219 | 2.0 | 5.0 | 0.00 | 0.02 | 0.00 | 78 | 1010.0 |
| 20260507051856 | 71 | 236 | 2.0 | 4.0 | 0.00 | 0.02 | 0.00 | 78 | 1010.1 |
| 20260507051621 | 71 | 277 | 2.0 | 3.0 | 0.00 | 0.02 | 0.00 | 78 | 1010.1 |
| 20260507050844 | 71 | 279 | 1.0 | 3.0 | 0.00 | 0.02 | 0.00 | 79 | 1010.1 |
| 20260507050338 | 71 | 217 | 1.0 | 3.0 | 0.00 | 0.02 | 0.00 | 79 | 1010.1 |
| 20260507045833 | 71 | 217 | 1.0 | 2.0 | 0.00 | 0.02 | 0.00 | 79 | 1010.1 |
| 20260507045326 | 71 | 217 | 1.0 | 3.0 | 0.00 | 0.02 | 0.00 | 79 | 1010.2 |
| 20260507045042 | 71 | 217 | 1.0 | 3.0 | 0.00 | 0.02 | 0.00 | 79 | 1010.3 |
| 20260507044315 | 71 | 216 | 1.0 | 3.0 | 0.00 | 0.02 | 0.00 | 79 | 1010.3 |
| 20260507043808 | 71 | 216 | 1.0 | 3.0 | 0.00 | 0.02 | 0.00 | 79 | 1010.3 |
| 20260507043303 | 71 | 216 | 1.0 | 2.0 | 0.00 | 0.02 | 0.00 | 79 | 1010.4 |
| 20260507042757 | 71 | 216 | 1.0 | 2.0 | 0.00 | 0.02 | 0.00 | 79 | 1010.4 |
| 20260507042250 | 71 | 198 | 1.0 | 2.0 | 0.00 | 0.02 | 0.00 | 79 | 1010.4 |
| 20260507041744 | 71 | 198 | 1.0 | 3.0 | 0.00 | 0.02 | 0.00 | 79 | 1010.4 |
| 20260507041239 | 71 | 198 | 1.0 | 3.0 | 0.00 | 0.02 | 0.00 | 79 | 1010.2 |
| 20260507040734 | 71 | 198 | 1.0 | 3.0 | 0.00 | 0.02 | 0.00 | 79 | 1010.3 |
| 20260507040229 | 71 | 198 | 2.0 | 3.0 | 0.00 | 0.02 | 0.00 | 79 | 1010.5 |
| 20260507035722 | 71 | 196 | 2.0 | 4.0 | 0.00 | 0.02 | 0.02 | 79 | 1010.2 |
| 20260507035217 | 71 | 220 | 2.0 | 4.0 | 0.00 | 0.02 | 0.02 | 80 | 1010.2 |
| 20260507034711 | 71 | 220 | 2.0 | 4.0 | 0.00 | 0.02 | 0.02 | 80 | 1010.1 |
| 20260507034205 | 70 | 225 | 2.0 | 4.0 | 0.00 | 0.02 | 0.02 | 80 | 1010.3 |
| 20260507033658 | 70 | 213 | 2.0 | 3.0 | 0.00 | 0.02 | 0.02 | 80 | 1010.2 |
| 20260507033153 | 70 | 213 | 2.0 | 3.0 | 0.00 | 0.02 | 0.02 | 80 | 1010.1 |
| 20260507032907 | 70 | 214 | 2.0 | 3.0 | 0.00 | 0.02 | 0.02 | 80 | 1010.2 |
| 20260507032403 | 70 | 213 | 2.0 | 3.0 | 0.00 | 0.02 | 0.02 | 80 | 1010.2 |
| 20260507031634 | 70 | 277 | 2.0 | 3.0 | 0.00 | 0.02 | 0.02 | 80 | 1010.1 |
| 20260507031127 | 70 | 218 | 2.0 | 4.0 | 0.00 | 0.02 | 0.02 | 80 | 1010.0 |
| 20260507030847 | 70 | 215 | 2.0 | 4.0 | 0.00 | 0.02 | 0.02 | 80 | 1010.2 |
| 20260507030115 | 70 | 215 | 2.0 | 3.0 | 0.00 | 0.02 | 0.02 | 80 | 1010.2 |
| 20260507025611 | 70 | 215 | 2.0 | 3.0 | 0.00 | 0.02 | 0.02 | 80 | 1010.3 |
| 20260507025104 | 70 | 215 | 2.0 | 3.0 | 0.00 | 0.02 | 0.02 | 80 | 1010.3 |
| 20260507024559 | 70 | 217 | 2.0 | 4.0 | 0.00 | 0.02 | 0.02 | 80 | 1010.2 |
| 20260507024053 | 70 | 217 | 2.0 | 4.0 | 0.00 | 0.02 | 0.02 | 80 | 1010.2 |
| 20260507024031 | 70 | 200 | 1.0 | 4.0 | 0.00 | 0.02 | 0.02 | 80 | 1010.2 |
| 20260507023041 | 70 | 190 | 2.0 | 3.0 | 0.00 | 0.02 | 0.02 | 80 | 1010.3 |
| 20260507022534 | 70 | 190 | 2.0 | 3.0 | 0.00 | 0.02 | 0.02 | 80 | 1010.5 |
| 20260507022523 | 70 | 189 | 1.0 | 4.0 | 0.00 | 0.02 | 0.02 | 80 | 1010.4 |
| 20260507021523 | 70 | 188 | 2.0 | 4.0 | 0.00 | 0.02 | 0.02 | 80 | 1010.4 |
| 20260507021017 | 70 | 209 | 1.0 | 3.0 | 0.00 | 0.02 | 0.02 | 80 | 1010.3 |
| 20260507020509 | 70 | 204 | 1.0 | 3.0 | 0.00 | 0.02 | 0.02 | 80 | 1010.3 |
| 20260507020010 | 70 | 273 | 1.0 | 2.0 | 0.00 | 0.02 | 0.02 | 80 | 1010.4 |
| 20260507015458 | 70 | 273 | 1.0 | 3.0 | 0.00 | 0.02 | 0.02 | 80 | 1010.4 |
| 20260507014953 | 70 | 273 | 1.0 | 3.0 | 0.00 | 0.02 | 0.02 | 80 | 1010.6 |
| 20260507014447 | 70 | 273 | 1.0 | 2.0 | 0.00 | 0.02 | 0.02 | 80 | 1010.5 |
| 20260507013946 | 70 | 273 | 1.0 | 2.0 | 0.00 | 0.02 | 0.02 | 80 | 1010.4 |
| 20260507013708 | 70 | 273 | 1.0 | 2.0 | 0.00 | 0.02 | 0.02 | 80 | 1010.6 |
| 20260507012946 | 70 | 273 | 1.0 | 2.0 | 0.00 | 0.02 | 0.02 | 80 | 1010.5 |
| 20260507012445 | 70 | 273 | 1.0 | 2.0 | 0.00 | 0.02 | 0.02 | 80 | 1010.3 |
| 20260507012206 | 70 | 273 | 1.0 | 3.0 | 0.00 | 0.02 | 0.02 | 80 | 1010.4 |
| 20260507011444 | 70 | 273 | 1.0 | 3.0 | 0.00 | 0.02 | 0.02 | 80 | 1010.5 |
| 20260507010942 | 70 | 274 | 1.0 | 2.0 | 0.00 | 0.02 | 0.02 | 80 | 1010.6 |
| 20260507010441 | 69 | 274 | 0.0 | 2.0 | 0.00 | 0.02 | 0.02 | 80 | 1010.5 |
| 20260507005941 | 70 | 274 | 0.0 | 1.0 | 0.00 | 0.02 | 0.02 | 80 | 1010.6 |
| 20260507005657 | 70 | 274 | 0.0 | 1.0 | 0.00 | 0.02 | 0.02 | 80 | 1010.6 |
| 20260507004940 | 70 | 273 | 0.0 | 1.0 | 0.00 | 0.02 | 0.02 | 80 | 1010.6 |
| 20260507004440 | 70 | 273 | 0.0 | 1.0 | 0.00 | 0.02 | 0.02 | 79 | 1010.6 |
| 20260507003941 | 70 | 273 | 0.0 | 1.0 | 0.00 | 0.02 | 0.02 | 79 | 1010.6 |
| 20260507003439 | 70 | 273 | 0.0 | 1.0 | 0.00 | 0.02 | 0.02 | 79 | 1010.4 |
| 20260507002939 | 71 | 273 | 0.0 | 1.0 | 0.00 | 0.02 | 0.02 | 78 | 1010.5 |
| 20260507002439 | 71 | 273 | 0.0 | 0.0 | 0.00 | 0.02 | 0.02 | 77 | 1010.4 |
| 20260507001941 | 71 | 273 | 0.0 | 0.0 | 0.00 | 0.02 | 0.02 | 77 | 1010.5 |
| 20260507001703 | 71 | 273 | 0.0 | 1.0 | 0.00 | 0.02 | 0.02 | 76 | 1010.5 |
| 20260507000940 | 72 | 273 | 0.0 | 1.0 | 0.00 | 0.02 | 0.02 | 76 | 1010.5 |
| 20260507000442 | 72 | 273 | 0.0 | 1.0 | 0.00 | 0.02 | 0.02 | 75 | 1010.3 |
| 20260506235939 | 72 | 273 | 0.0 | 1.0 | 0.00 | 0.02 | 0.02 | 75 | 1010.4 |
| 20260506235439 | 73 | 273 | 0.0 | 1.0 | 0.00 | 0.02 | 0.02 | 74 | 1010.4 |
| 20260506234934 | 73 | 273 | 0.0 | 1.0 | 0.00 | 0.02 | 0.02 | 74 | 1010.3 |
| 20260506234920 | 73 | 273 | 0.0 | 2.0 | 0.00 | 0.02 | 0.02 | 74 | 1010.3 |
| 20260506233922 | 73 | 272 | 0.0 | 2.0 | 0.00 | 0.02 | 0.02 | 74 | 1010.3 |
| 20260506233416 | 73 | 277 | 0.0 | 0.0 | 0.00 | 0.02 | 0.02 | 73 | 1010.1 |
| 20260506232910 | 73 | 277 | 0.0 | 0.0 | 0.00 | 0.02 | 0.02 | 73 | 1010.3 |
| 20260506232403 | 73 | 277 | 0.0 | 1.0 | 0.00 | 0.02 | 0.02 | 73 | 1010.2 |
| 20260506231858 | 73 | 277 | 1.0 | 2.0 | 0.00 | 0.02 | 0.02 | 73 | 1010.2 |
| 20260506231352 | 74 | 276 | 1.0 | 2.0 | 0.00 | 0.02 | 0.02 | 72 | 1010.3 |
| 20260506230844 | 74 | 276 | 1.0 | 3.0 | 0.00 | 0.02 | 0.02 | 72 | 1010.1 |
| 20260506230338 | 74 | 277 | 1.0 | 3.0 | 0.00 | 0.02 | 0.02 | 72 | 1010.0 |
| 20260506225834 | 74 | 277 | 1.0 | 3.0 | 0.00 | 0.02 | 0.02 | 71 | 1010.0 |
| 20260506225327 | 74 | 277 | 1.0 | 3.0 | 0.00 | 0.02 | 0.02 | 71 | 1010.1 |
| 20260506224821 | 74 | 277 | 1.0 | 3.0 | 0.00 | 0.02 | 0.02 | 71 | 1010.1 |
| 20260506224316 | 74 | 323 | 1.0 | 4.0 | 0.00 | 0.02 | 0.02 | 70 | 1010.2 |
| 20260506223810 | 74 | 325 | 2.0 | 4.0 | 0.00 | 0.02 | 0.02 | 70 | 1010.1 |
| 20260506223304 | 74 | 218 | 1.0 | 3.0 | 0.00 | 0.02 | 0.02 | 70 | 1010.2 |
| 20260506222758 | 74 | 319 | 2.0 | 4.0 | 0.00 | 0.02 | 0.02 | 70 | 1010.1 |
| 20260506222740 | 74 | 234 | 2.0 | 4.0 | 0.00 | 0.02 | 0.02 | 69 | 1010.1 |
| 20260506221746 | 75 | 234 | 2.0 | 5.0 | 0.00 | 0.02 | 0.02 | 69 | 1010.1 |
| 20260506221240 | 75 | 218 | 2.0 | 5.0 | 0.00 | 0.02 | 0.02 | 69 | 1010.2 |
| 20260506220734 | 75 | 211 | 2.0 | 5.0 | 0.00 | 0.02 | 0.02 | 69 | 1010.3 |
| 20260506220227 | 75 | 240 | 2.0 | 4.0 | 0.00 | 0.02 | 0.02 | 69 | 1010.3 |
| 20260506215722 | 75 | 207 | 2.0 | 4.0 | 0.00 | 0.02 | 0.02 | 69 | 1010.3 |
| 20260506215216 | 75 | 219 | 2.0 | 6.0 | 0.00 | 0.02 | 0.02 | 68 | 1010.2 |
| 20260506214710 | 75 | 221 | 3.0 | 7.0 | 0.00 | 0.02 | 0.02 | 69 | 1010.2 |
| 20260506214203 | 75 | 203 | 3.0 | 7.0 | 0.00 | 0.02 | 0.02 | 69 | 1010.2 |
| 20260506213657 | 75 | 216 | 2.0 | 5.0 | 0.00 | 0.02 | 0.02 | 69 | 1010.3 |
| 20260506213152 | 75 | 169 | 3.0 | 8.0 | 0.00 | 0.02 | 0.02 | 69 | 1010.2 |
| 20260506212646 | 74 | 217 | 2.0 | 8.0 | 0.00 | 0.02 | 0.02 | 69 | 1010.2 |
| 20260506212140 | 74 | 249 | 2.0 | 5.0 | 0.00 | 0.02 | 0.02 | 71 | 1010.3 |
| 20260506211901 | 74 | 200 | 2.0 | 5.0 | 0.00 | 0.02 | 0.02 | 70 | 1010.3 |
| 20260506211128 | 74 | 207 | 2.0 | 3.0 | 0.00 | 0.02 | 0.02 | 71 | 1010.2 |
| 20260506210622 | 74 | 207 | 2.0 | 3.0 | 0.00 | 0.02 | 0.02 | 70 | 1010.0 |
| 20260506210116 | 74 | 206 | 1.0 | 3.0 | 0.00 | 0.02 | 0.02 | 71 | 1010.0 |
| 20260506205610 | 74 | 201 | 1.0 | 3.0 | 0.00 | 0.02 | 0.02 | 71 | 1009.8 |
| 20260506205104 | 74 | 197 | 2.0 | 3.0 | 0.00 | 0.02 | 0.02 | 71 | 1009.9 |
| 20260506204558 | 73 | 191 | 2.0 | 4.0 | 0.00 | 0.02 | 0.02 | 71 | 1009.8 |
| 20260506204052 | 73 | 279 | 1.0 | 3.0 | 0.00 | 0.02 | 0.02 | 72 | 1010.0 |
| 20260506203813 | 73 | 279 | 1.0 | 3.0 | 0.00 | 0.02 | 0.02 | 72 | 1009.7 |
| 20260506203300 | 73 | 192 | 2.0 | 4.0 | 0.00 | 0.02 | 0.02 | 72 | 1009.7 |
| 20260506202534 | 73 | 195 | 2.0 | 4.0 | 0.00 | 0.02 | 0.02 | 72 | 1009.5 |
| 20260506202028 | 73 | 219 | 1.0 | 3.0 | 0.00 | 0.02 | 0.02 | 73 | 1009.4 |
| 20260506201522 | 72 | 219 | 1.0 | 3.0 | 0.00 | 0.02 | 0.02 | 73 | 1009.7 |
| 20260506201015 | 72 | 219 | 1.0 | 3.0 | 0.00 | 0.02 | 0.02 | 74 | 1009.9 |
| 20260506200511 | 72 | 218 | 1.0 | 4.0 | 0.00 | 0.02 | 0.02 | 73 | 1010.0 |
| 20260506200003 | 72 | 217 | 2.0 | 5.0 | 0.00 | 0.02 | 0.02 | 73 | 1009.8 |
| 20260506195458 | 72 | 217 | 2.0 | 5.0 | 0.00 | 0.02 | 0.02 | 73 | 1009.5 |